Time,TemperatureF,DewpointF,PressureIn,WindDirection,WindDirectionDegrees,WindSpeedMPH,WindSpeedGustMPH,Humidity,HourlyPrecipIn,Conditions,Clouds,dailyrainin,SoftwareType,DateUTC
2014-08-21 00:01:00,70.7,68.3,29.69,North,353,0.0,12.0,92,0.00,,,0.00,Wunderground v.1.15,2014-08-21 05:01:00,
2014-08-21 00:07:00,70.6,68.2,29.69,NNE,15,0.0,12.0,92,0.00,,,0.00,Wunderground v.1.15,2014-08-21 05:07:00,
2014-08-21 00:12:00,70.6,68.2,29.69,North,360,0.0,12.0,92,0.00,,,0.00,Wunderground v.1.15,2014-08-21 05:12:00,
2014-08-21 00:17:00,70.5,68.1,29.69,NNW,343,0.0,12.0,92,0.00,,,0.00,Wunderground v.1.15,2014-08-21 05:17:00,
2014-08-21 00:22:00,70.5,68.1,29.69,NNE,13,0.0,12.0,92,0.00,,,0.00,Wunderground v.1.15,2014-08-21 05:22:00,
2014-08-21 00:27:00,70.5,68.1,29.70,North,358,0.0,12.0,92,0.00,,,0.00,Wunderground v.1.15,2014-08-21 05:27:00,
2014-08-21 00:33:00,70.4,68.0,29.70,North,3,0.0,12.0,92,0.00,,,0.00,Wunderground v.1.15,2014-08-21 05:33:00,
2014-08-21 00:38:00,70.4,68.0,29.70,North,359,0.0,12.0,92,0.00,,,0.00,Wunderground v.1.15,2014-08-21 05:38:00,
2014-08-21 00:43:00,70.4,68.0,29.69,North,8,0.0,12.0,92,0.00,,,0.00,Wunderground v.1.15,2014-08-21 05:43:00,
2014-08-21 00:48:00,70.4,68.0,29.69,NNE,20,0.0,12.0,92,0.00,,,0.00,Wunderground v.1.15,2014-08-21 05:48:00,
2014-08-21 00:53:00,70.3,67.9,29.69,North,7,0.0,12.0,92,0.00,,,0.00,Wunderground v.1.15,2014-08-21 05:53:00,
2014-08-21 00:58:00,70.3,67.9,29.68,North,360,0.0,12.0,92,0.00,,,0.00,Wunderground v.1.15,2014-08-21 05:58:00,
2014-08-21 01:04:00,70.2,67.8,29.67,North,356,1.0,12.0,92,0.00,,,0.00,Wunderground v.1.15,2014-08-21 06:04:00,
2014-08-21 01:09:00,70.1,67.7,29.67,North,352,1.0,12.0,92,0.00,,,0.00,Wunderground v.1.15,2014-08-21 06:09:00,
2014-08-21 01:14:00,70.0,67.9,29.66,NNW,347,1.0,12.0,93,0.00,,,0.00,Wunderground v.1.15,2014-08-21 06:14:00,
2014-08-21 01:19:00,69.9,67.8,29.66,North,360,1.0,12.0,93,0.00,,,0.00,Wunderground v.1.15,2014-08-21 06:19:00,
2014-08-21 01:24:00,69.9,67.8,29.66,North,358,1.0,12.0,93,0.00,,,0.00,Wunderground v.1.15,2014-08-21 06:24:00,
2014-08-21 01:30:00,69.8,67.7,29.65,North,356,1.0,12.0,93,0.00,,,0.00,Wunderground v.1.15,2014-08-21 06:30:00,
2014-08-21 01:35:00,69.8,67.7,29.66,NW,325,1.0,12.0,93,0.00,,,0.00,Wunderground v.1.15,2014-08-21 06:35:00,
2014-08-21 01:40:00,69.7,67.6,29.66,NNW,340,0.0,12.0,93,0.00,,,0.00,Wunderground v.1.15,2014-08-21 06:40:00,
2014-08-21 01:45:00,69.7,67.6,29.67,North,353,0.0,12.0,93,0.00,,,0.00,Wunderground v.1.15,2014-08-21 06:45:00,
2014-08-21 01:50:00,69.7,67.6,29.67,North,349,1.0,1.0,93,0.00,,,0.00,Wunderground v.1.15,2014-08-21 06:50:00,
2014-08-21 01:55:00,69.8,67.7,29.67,NNE,15,1.0,12.0,93,0.00,,,0.00,Wunderground v.1.15,2014-08-21 06:55:00,
2014-08-21 02:00:00,69.9,67.8,29.67,NNW,328,1.0,12.0,93,0.00,,,0.00,Wunderground v.1.15,2014-08-21 07:00:00,
2014-08-21 02:05:00,69.9,67.8,29.66,North,8,1.0,12.0,93,0.00,,,0.00,Wunderground v.1.15,2014-08-21 07:05:00,
2014-08-21 02:10:00,69.9,67.8,29.66,NNE,20,1.0,12.0,93,0.00,,,0.00,Wunderground v.1.15,2014-08-21 07:10:00,
2014-08-21 02:15:00,69.9,67.8,29.66,NNE,23,1.0,12.0,93,0.00,,,0.00,Wunderground v.1.15,2014-08-21 07:15:00,
2014-08-21 02:21:00,69.9,67.8,29.66,NNW,340,0.0,12.0,93,0.00,,,0.00,Wunderground v.1.15,2014-08-21 07:21:00,
2014-08-21 02:26:00,69.9,67.8,29.65,North,3,0.0,12.0,93,0.00,,,0.00,Wunderground v.1.15,2014-08-21 07:26:00,
2014-08-21 02:31:00,69.9,67.8,29.64,NNW,340,1.0,12.0,93,0.00,,,0.00,Wunderground v.1.15,2014-08-21 07:31:00,
2014-08-21 02:36:00,69.8,67.7,29.64,NNW,342,1.0,12.0,93,0.00,,,0.00,Wunderground v.1.15,2014-08-21 07:36:00,
2014-08-21 02:41:00,69.8,67.7,29.64,WNW,294,1.0,12.0,93,0.00,,,0.00,Wunderground v.1.15,2014-08-21 07:41:00,
2014-08-21 02:47:00,69.9,67.8,29.64,NNE,14,1.0,12.0,93,0.00,,,0.00,Wunderground v.1.15,2014-08-21 07:47:00,
2014-08-21 02:52:00,69.9,67.8,29.63,North,360,1.0,12.0,93,0.00,,,0.00,Wunderground v.1.15,2014-08-21 07:52:00,
2014-08-21 02:57:00,69.9,67.8,29.63,NNW,343,1.0,12.0,93,0.00,,,0.00,Wunderground v.1.15,2014-08-21 07:57:00,
2014-08-21 03:04:00,70.0,68.2,29.63,NNW,340,0.0,12.0,94,0.00,,,0.00,Wunderground v.1.15,2014-08-21 08:04:00,
2014-08-21 03:09:00,70.0,67.9,29.63,NW,307,0.0,12.0,93,0.00,,,0.00,Wunderground v.1.15,2014-08-21 08:09:00,
2014-08-21 03:14:00,70.1,68.0,29.63,NW,314,0.0,12.0,93,0.00,,,0.00,Wunderground v.1.15,2014-08-21 08:14:00,
2014-08-21 03:19:00,70.1,68.0,29.63,NNW,331,0.0,12.0,93,0.00,,,0.00,Wunderground v.1.15,2014-08-21 08:19:00,
2014-08-21 03:24:00,70.1,68.3,29.63,North,352,0.0,12.0,94,0.00,,,0.00,Wunderground v.1.15,2014-08-21 08:24:00,
2014-08-21 03:29:00,70.1,68.3,29.62,North,351,0.0,12.0,94,0.00,,,0.00,Wunderground v.1.15,2014-08-21 08:29:00,
2014-08-21 03:35:00,70.1,68.3,29.62,North,360,0.0,12.0,94,0.00,,,0.00,Wunderground v.1.15,2014-08-21 08:35:00,
2014-08-21 03:40:00,70.1,68.3,29.62,NNE,16,1.0,12.0,94,0.00,,,0.00,Wunderground v.1.15,2014-08-21 08:40:00,
2014-08-21 03:45:00,70.2,68.4,29.62,NNW,327,1.0,12.0,94,0.00,,,0.00,Wunderground v.1.15,2014-08-21 08:45:00,
2014-08-21 03:50:00,70.2,68.1,29.61,North,359,1.0,12.0,93,0.00,,,0.00,Wunderground v.1.15,2014-08-21 08:50:00,
2014-08-21 03:55:00,70.3,68.2,29.61,North,359,1.0,12.0,93,0.00,,,0.00,Wunderground v.1.15,2014-08-21 08:55:00,
2014-08-21 04:01:00,70.3,68.2,29.60,NNE,25,1.0,12.0,93,0.00,,,0.00,Wunderground v.1.15,2014-08-21 09:01:00,
2014-08-21 04:06:00,70.3,68.2,29.60,NNW,331,1.0,12.0,93,0.00,,,0.00,Wunderground v.1.15,2014-08-21 09:06:00,
2014-08-21 04:11:00,70.2,68.1,29.60,NW,323,0.0,12.0,93,0.00,,,0.00,Wunderground v.1.15,2014-08-21 09:11:00,
2014-08-21 04:16:00,70.2,68.1,29.60,NNW,344,1.0,12.0,93,0.00,,,0.00,Wunderground v.1.15,2014-08-21 09:16:00,
2014-08-21 04:21:00,70.2,68.1,29.61,North,4,1.0,12.0,93,0.00,,,0.00,Wunderground v.1.15,2014-08-21 09:21:00,
2014-08-21 04:27:00,70.2,68.4,29.61,North,6,1.0,12.0,94,0.00,,,0.01,Wunderground v.1.15,2014-08-21 09:27:00,
2014-08-21 04:32:00,70.2,68.4,29.60,NNE,12,1.0,12.0,94,0.00,,,0.01,Wunderground v.1.15,2014-08-21 09:32:00,
2014-08-21 04:37:00,70.1,68.3,29.60,North,349,1.0,12.0,94,0.00,,,0.01,Wunderground v.1.15,2014-08-21 09:37:00,
2014-08-21 04:42:00,70.0,68.2,29.60,NNW,342,1.0,12.0,94,0.00,,,0.01,Wunderground v.1.15,2014-08-21 09:42:00,
2014-08-21 04:47:00,70.0,68.2,29.60,NNE,13,1.0,12.0,94,0.00,,,0.01,Wunderground v.1.15,2014-08-21 09:47:00,
2014-08-21 04:53:00,70.0,68.2,29.59,North,353,1.0,12.0,94,0.00,,,0.01,Wunderground v.1.15,2014-08-21 09:53:00,
2014-08-21 04:58:00,69.9,68.1,29.59,NNW,343,2.0,12.0,94,0.00,,,0.01,Wunderground v.1.15,2014-08-21 09:58:00,
2014-08-21 05:03:00,70.0,68.2,29.59,NW,316,2.0,12.0,94,0.00,,,0.01,Wunderground v.1.15,2014-08-21 10:03:00,
2014-08-21 05:08:00,70.0,68.2,29.59,North,349,2.0,12.0,94,0.00,,,0.01,Wunderground v.1.15,2014-08-21 10:08:00,
2014-08-21 05:13:00,70.0,68.2,29.59,North,352,1.0,12.0,94,0.00,,,0.01,Wunderground v.1.15,2014-08-21 10:13:00,
2014-08-21 05:19:00,70.1,68.3,29.59,North,359,1.0,12.0,94,0.00,,,0.02,Wunderground v.1.15,2014-08-21 10:19:00,
2014-08-21 05:24:00,70.0,68.2,29.59,NW,315,1.0,12.0,94,0.00,,,0.02,Wunderground v.1.15,2014-08-21 10:24:00,
2014-08-21 05:30:00,69.9,68.1,29.60,West,270,1.0,1.0,94,0.06,,,0.03,Wunderground v.1.15,2014-08-21 10:30:00,
2014-08-21 05:35:00,69.9,68.1,29.62,WNW,293,1.0,12.0,94,0.06,,,0.04,Wunderground v.1.15,2014-08-21 10:35:00,
2014-08-21 05:41:00,69.9,68.1,29.62,ESE,108,1.0,12.0,94,0.33,,,0.06,Wunderground v.1.15,2014-08-21 10:41:00,
2014-08-21 05:47:00,69.9,67.8,29.61,West,267,1.0,12.0,93,0.28,,,0.09,Wunderground v.1.15,2014-08-21 10:47:00,
2014-08-21 05:53:00,70.1,68.0,29.62,West,264,1.0,12.0,93,0.11,,,0.10,Wunderground v.1.15,2014-08-21 10:53:00,
2014-08-21 05:58:00,70.2,68.1,29.61,West,259,1.0,12.0,93,0.10,,,0.10,Wunderground v.1.15,2014-08-21 10:58:00,
2014-08-21 06:04:00,70.3,68.2,29.61,NW,314,1.0,12.0,93,0.06,,,0.11,Wunderground v.1.15,2014-08-21 11:04:00,
2014-08-21 06:09:00,70.3,68.2,29.61,WSW,247,1.0,12.0,93,0.06,,,0.11,Wunderground v.1.15,2014-08-21 11:09:00,
2014-08-21 06:14:00,70.2,68.1,29.61,WSW,252,1.0,12.0,93,0.05,,,0.11,Wunderground v.1.15,2014-08-21 11:14:00,
2014-08-21 06:19:00,70.1,68.0,29.61,NNE,33,1.0,12.0,93,0.04,,,0.11,Wunderground v.1.15,2014-08-21 11:19:00,
2014-08-21 06:24:00,69.8,68.0,29.61,West,270,0.0,12.0,94,0.00,,,0.11,Wunderground v.1.15,2014-08-21 11:24:00,
2014-08-21 06:29:00,69.4,67.6,29.61,WSW,255,1.0,1.0,94,0.00,,,0.11,Wunderground v.1.15,2014-08-21 11:29:00,
2014-08-21 06:34:00,69.2,67.4,29.62,SW,217,1.0,12.0,94,0.00,,,0.11,Wunderground v.1.15,2014-08-21 11:34:00,
2014-08-21 06:41:00,69.0,67.2,29.62,NNW,337,1.0,12.0,94,0.00,,,0.11,Wunderground v.1.15,2014-08-21 11:41:00,
2014-08-21 06:46:00,68.6,66.8,29.65,West,278,0.0,12.0,94,0.00,,,0.12,Wunderground v.1.15,2014-08-21 11:46:00,
2014-08-21 06:52:00,68.5,66.7,29.66,ENE,63,0.0,12.0,94,0.00,,,0.12,Wunderground v.1.15,2014-08-21 11:52:00,
2014-08-21 06:57:00,68.3,66.5,29.65,North,360,0.0,12.0,94,0.00,,,0.12,Wunderground v.1.15,2014-08-21 11:57:00,
2014-08-21 07:02:00,68.2,66.4,29.67,NNW,342,1.0,12.0,94,0.00,,,0.12,Wunderground v.1.15,2014-08-21 12:02:00,
2014-08-21 07:07:00,68.1,66.3,29.69,NNW,342,0.0,12.0,94,0.00,,,0.12,Wunderground v.1.15,2014-08-21 12:07:00,
2014-08-21 07:12:00,68.1,66.3,29.69,ENE,61,0.0,12.0,94,0.00,,,0.12,Wunderground v.1.15,2014-08-21 12:12:00,
2014-08-21 07:18:00,67.9,66.1,29.65,SE,124,2.0,12.0,94,0.92,,,0.18,Wunderground v.1.15,2014-08-21 12:18:00,
2014-08-21 07:23:00,67.9,66.1,29.66,SE,139,1.0,12.0,94,0.29,,,0.22,Wunderground v.1.15,2014-08-21 12:23:00,
2014-08-21 07:28:00,67.9,66.1,29.65,NE,43,0.0,12.0,94,0.10,,,0.22,Wunderground v.1.15,2014-08-21 12:28:00,
2014-08-21 07:33:00,67.9,65.8,29.64,ENE,65,1.0,12.0,93,0.06,,,0.22,Wunderground v.1.15,2014-08-21 12:33:00,
2014-08-21 07:38:00,67.9,65.8,29.64,ENE,73,1.0,12.0,93,0.04,,,0.22,Wunderground v.1.15,2014-08-21 12:38:00,
2014-08-21 07:44:00,67.9,65.8,29.64,NW,320,0.0,12.0,93,0.00,,,0.22,Wunderground v.1.15,2014-08-21 12:44:00,
2014-08-21 07:49:00,68.0,65.9,29.63,NNW,342,0.0,12.0,93,0.00,,,0.22,Wunderground v.1.15,2014-08-21 12:49:00,
2014-08-21 07:54:00,68.3,66.2,29.62,NNW,336,0.0,12.0,93,0.00,,,0.22,Wunderground v.1.15,2014-08-21 12:54:00,
2014-08-21 07:59:00,68.6,66.5,29.61,North,358,0.0,12.0,93,0.00,,,0.22,Wunderground v.1.15,2014-08-21 12:59:00,
2014-08-21 08:04:00,68.8,66.7,29.61,NNE,30,0.0,12.0,93,0.00,,,0.22,Wunderground v.1.15,2014-08-21 13:04:00,
2014-08-21 08:10:00,68.9,66.8,29.61,NNW,345,1.0,12.0,93,0.00,,,0.22,Wunderground v.1.15,2014-08-21 13:10:00,
2014-08-21 08:15:00,69.1,67.0,29.61,North,359,1.0,12.0,93,0.00,,,0.22,Wunderground v.1.15,2014-08-21 13:15:00,
2014-08-21 08:20:00,69.2,67.1,29.61,NE,49,1.0,12.0,93,0.00,,,0.22,Wunderground v.1.15,2014-08-21 13:20:00,
2014-08-21 08:25:00,69.4,67.3,29.61,NNE,20,1.0,12.0,93,0.00,,,0.22,Wunderground v.1.15,2014-08-21 13:25:00,
2014-08-21 08:30:00,69.6,67.5,29.61,NNW,342,1.0,12.0,93,0.00,,,0.22,Wunderground v.1.15,2014-08-21 13:30:00,
2014-08-21 08:36:00,69.8,67.4,29.61,NW,315,1.0,12.0,92,0.00,,,0.22,Wunderground v.1.15,2014-08-21 13:36:00,
2014-08-21 08:41:00,70.1,67.7,29.61,North,4,0.0,12.0,92,0.00,,,0.22,Wunderground v.1.15,2014-08-21 13:41:00,
2014-08-21 08:46:00,70.3,67.9,29.61,North,359,0.0,12.0,92,0.00,,,0.22,Wunderground v.1.15,2014-08-21 13:46:00,
2014-08-21 08:51:00,70.5,68.1,29.60,NW,314,0.0,12.0,92,0.00,,,0.22,Wunderground v.1.15,2014-08-21 13:51:00,
2014-08-21 08:56:00,70.7,68.3,29.60,NNE,25,0.0,12.0,92,0.00,,,0.22,Wunderground v.1.15,2014-08-21 13:56:00,
2014-08-21 09:01:00,70.8,68.7,29.60,NW,322,1.0,12.0,93,0.00,,,0.22,Wunderground v.1.15,2014-08-21 14:01:00,
2014-08-21 09:07:00,71.0,68.9,29.60,NW,313,0.0,12.0,93,0.00,,,0.22,Wunderground v.1.15,2014-08-21 14:07:00,
2014-08-21 09:12:00,71.2,68.8,29.61,NW,324,0.0,12.0,92,0.00,,,0.22,Wunderground v.1.15,2014-08-21 14:12:00,
2014-08-21 09:17:00,71.3,69.2,29.61,NNW,336,0.0,12.0,93,0.00,,,0.22,Wunderground v.1.15,2014-08-21 14:17:00,
2014-08-21 09:22:00,71.4,69.3,29.61,WNW,287,0.0,12.0,93,0.00,,,0.22,Wunderground v.1.15,2014-08-21 14:22:00,
2014-08-21 09:27:00,71.6,69.5,29.61,West,278,0.0,12.0,93,0.00,,,0.22,Wunderground v.1.15,2014-08-21 14:27:00,
2014-08-21 09:33:00,71.8,69.7,29.60,NW,318,0.0,12.0,93,0.00,,,0.22,Wunderground v.1.15,2014-08-21 14:33:00,
2014-08-21 09:38:00,71.9,69.8,29.60,SW,224,0.0,12.0,93,0.00,,,0.22,Wunderground v.1.15,2014-08-21 14:38:00,
2014-08-21 09:43:00,71.8,70.0,29.60,SW,223,0.0,12.0,94,0.00,,,0.22,Wunderground v.1.15,2014-08-21 14:43:00,
2014-08-21 09:48:00,72.1,70.0,29.60,WSW,253,0.0,12.0,93,0.00,,,0.22,Wunderground v.1.15,2014-08-21 14:48:00,
2014-08-21 09:53:00,72.2,70.1,29.61,West,269,0.0,12.0,93,0.00,,,0.22,Wunderground v.1.15,2014-08-21 14:53:00,
2014-08-21 09:58:00,72.6,70.5,29.60,WNW,287,0.0,12.0,93,0.00,,,0.22,Wunderground v.1.15,2014-08-21 14:58:00,
2014-08-21 10:03:00,72.8,71.0,29.60,West,266,1.0,12.0,94,0.00,,,0.22,Wunderground v.1.15,2014-08-21 15:03:00,
2014-08-21 10:09:00,73.0,71.2,29.60,WNW,283,0.0,12.0,94,0.00,,,0.22,Wunderground v.1.15,2014-08-21 15:09:00,
2014-08-21 10:14:00,73.0,71.2,29.60,SW,226,0.0,12.0,94,0.00,,,0.22,Wunderground v.1.15,2014-08-21 15:14:00,
2014-08-21 10:19:00,73.2,71.4,29.60,WNW,283,0.0,12.0,94,0.00,,,0.22,Wunderground v.1.15,2014-08-21 15:19:00,
2014-08-21 10:25:00,73.3,71.5,29.59,West,280,0.0,12.0,94,0.00,,,0.22,Wunderground v.1.15,2014-08-21 15:25:00,
2014-08-21 10:30:00,73.4,71.6,29.59,NNE,33,0.0,12.0,94,0.00,,,0.22,Wunderground v.1.15,2014-08-21 15:30:00,
2014-08-21 10:35:00,73.6,71.8,29.60,WNW,285,0.0,12.0,94,0.00,,,0.22,Wunderground v.1.15,2014-08-21 15:35:00,
2014-08-21 10:40:00,73.9,72.1,29.59,NW,307,0.0,12.0,94,0.00,,,0.22,Wunderground v.1.15,2014-08-21 15:40:00,
2014-08-21 10:45:00,74.0,72.2,29.59,NE,49,0.0,12.0,94,0.00,,,0.22,Wunderground v.1.15,2014-08-21 15:45:00,
2014-08-21 10:51:00,74.2,72.0,29.60,NNE,28,0.0,12.0,93,0.00,,,0.22,Wunderground v.1.15,2014-08-21 15:51:00,
2014-08-21 10:56:00,74.3,72.1,29.60,NNW,338,0.0,12.0,93,0.00,,,0.22,Wunderground v.1.15,2014-08-21 15:56:00,
2014-08-21 11:01:00,74.6,72.8,29.60,NNW,337,0.0,12.0,94,0.00,,,0.22,Wunderground v.1.15,2014-08-21 16:01:00,
2014-08-21 11:06:00,74.9,72.7,29.60,West,273,0.0,12.0,93,0.00,,,0.22,Wunderground v.1.15,2014-08-21 16:06:00,
2014-08-21 11:11:00,75.6,73.4,29.60,WSW,245,0.0,12.0,93,0.00,,,0.22,Wunderground v.1.15,2014-08-21 16:11:00,
2014-08-21 11:17:00,76.2,73.7,29.59,WSW,257,1.0,12.0,92,0.00,,,0.22,Wunderground v.1.15,2014-08-21 16:17:00,
2014-08-21 11:22:00,76.6,74.1,29.59,South,176,0.0,12.0,92,0.00,,,0.22,Wunderground v.1.15,2014-08-21 16:22:00,
2014-08-21 11:27:00,77.0,74.2,29.60,WSW,250,0.0,12.0,91,0.00,,,0.22,Wunderground v.1.15,2014-08-21 16:27:00,
2014-08-21 11:32:00,77.3,74.1,29.60,SW,233,1.0,12.0,90,0.00,,,0.22,Wunderground v.1.15,2014-08-21 16:32:00,
2014-08-21 11:37:00,77.8,74.6,29.60,WNW,296,0.0,12.0,90,0.00,,,0.22,Wunderground v.1.15,2014-08-21 16:37:00,
2014-08-21 11:42:00,78.2,74.4,29.60,WNW,287,0.0,12.0,88,0.00,,,0.22,Wunderground v.1.15,2014-08-21 16:42:00,
2014-08-21 11:47:00,78.5,74.3,29.59,WNW,294,0.0,12.0,87,0.00,,,0.22,Wunderground v.1.15,2014-08-21 16:47:00,
2014-08-21 11:53:00,79.1,74.9,29.59,WSW,253,0.0,12.0,87,0.00,,,0.22,Wunderground v.1.15,2014-08-21 16:53:00,
2014-08-21 11:58:00,79.9,75.3,29.58,West,281,0.0,12.0,86,0.00,,,0.22,Wunderground v.1.15,2014-08-21 16:58:00,
2014-08-21 12:03:00,80.4,75.5,29.58,SSE,148,0.0,12.0,85,0.00,,,0.22,Wunderground v.1.15,2014-08-21 17:03:00,
2014-08-21 12:08:00,80.7,75.4,29.58,SSW,212,0.0,12.0,84,0.00,,,0.22,Wunderground v.1.15,2014-08-21 17:08:00,
2014-08-21 12:13:00,81.4,75.7,29.58,West,266,0.0,12.0,83,0.00,,,0.22,Wunderground v.1.15,2014-08-21 17:13:00,
2014-08-21 12:18:00,82.1,76.4,29.58,ENE,65,0.0,12.0,83,0.00,,,0.22,Wunderground v.1.15,2014-08-21 17:18:00,
2014-08-21 12:23:00,82.4,76.3,29.58,WNW,285,0.0,12.0,82,0.00,,,0.22,Wunderground v.1.15,2014-08-21 17:23:00,
2014-08-21 12:28:00,83.1,77.4,29.58,NW,314,0.0,12.0,83,0.00,,,0.22,Wunderground v.1.15,2014-08-21 17:28:00,
2014-08-21 12:33:00,83.4,76.2,29.58,NW,309,0.0,12.0,79,0.00,,,0.22,Wunderground v.1.15,2014-08-21 17:33:00,
2014-08-21 12:39:00,83.9,77.1,29.58,NW,314,0.0,12.0,80,0.00,,,0.22,Wunderground v.1.15,2014-08-21 17:39:00,
2014-08-21 12:44:00,84.2,77.4,29.58,SSE,165,0.0,12.0,80,0.00,,,0.22,Wunderground v.1.15,2014-08-21 17:44:00,
2014-08-21 12:49:00,84.3,77.1,29.57,WNW,290,0.0,12.0,79,0.00,,,0.22,Wunderground v.1.15,2014-08-21 17:49:00,
2014-08-21 12:54:00,84.4,77.2,29.58,WNW,290,0.0,12.0,79,0.00,,,0.22,Wunderground v.1.15,2014-08-21 17:54:00,
2014-08-21 12:59:00,84.2,75.8,29.58,West,281,1.0,12.0,76,0.00,,,0.22,Wunderground v.1.15,2014-08-21 17:59:00,
2014-08-21 13:04:00,83.8,76.6,29.58,SSE,160,1.0,12.0,79,0.00,,,0.22,Wunderground v.1.15,2014-08-21 18:04:00,
2014-08-21 13:10:00,83.6,76.4,29.58,SW,232,1.0,1.0,79,0.00,,,0.22,Wunderground v.1.15,2014-08-21 18:10:00,
2014-08-21 13:15:00,83.7,76.9,29.57,WSW,243,0.0,12.0,80,0.00,,,0.22,Wunderground v.1.15,2014-08-21 18:15:00,
2014-08-21 13:20:00,83.7,76.9,29.57,SW,229,0.0,12.0,80,0.00,,,0.22,Wunderground v.1.15,2014-08-21 18:20:00,
2014-08-21 13:25:00,84.0,76.8,29.58,WSW,239,0.0,12.0,79,0.00,,,0.22,Wunderground v.1.15,2014-08-21 18:25:00,
2014-08-21 13:31:00,83.8,76.6,29.57,South,191,1.0,12.0,79,0.00,,,0.22,Wunderground v.1.15,2014-08-21 18:31:00,
2014-08-21 13:36:00,83.7,76.5,29.58,WSW,239,1.0,12.0,79,0.00,,,0.22,Wunderground v.1.15,2014-08-21 18:36:00,
2014-08-21 13:41:00,83.4,76.2,29.58,West,260,0.0,12.0,79,0.00,,,0.22,Wunderground v.1.15,2014-08-21 18:41:00,
2014-08-21 13:46:00,83.4,77.3,29.58,SE,139,0.0,12.0,82,0.00,,,0.22,Wunderground v.1.15,2014-08-21 18:46:00,
2014-08-21 13:51:00,83.4,76.6,29.58,WNW,287,1.0,12.0,80,0.00,,,0.22,Wunderground v.1.15,2014-08-21 18:51:00,
2014-08-21 13:57:00,83.7,77.2,29.58,SW,233,1.0,12.0,81,0.00,,,0.22,Wunderground v.1.15,2014-08-21 18:57:00,
2014-08-21 14:02:00,83.9,76.7,29.58,SW,231,1.0,12.0,79,0.00,,,0.22,Wunderground v.1.15,2014-08-21 19:02:00,
2014-08-21 14:07:00,84.1,76.5,29.58,WSW,257,1.0,12.0,78,0.00,,,0.22,Wunderground v.1.15,2014-08-21 19:07:00,
2014-08-21 14:12:00,84.2,76.6,29.58,West,273,1.0,12.0,78,0.00,,,0.22,Wunderground v.1.15,2014-08-21 19:12:00,
2014-08-21 14:17:00,84.3,77.1,29.58,WNW,301,1.0,12.0,79,0.00,,,0.22,Wunderground v.1.15,2014-08-21 19:17:00,
2014-08-21 14:22:00,84.2,77.4,29.58,NW,304,0.0,12.0,80,0.00,,,0.22,Wunderground v.1.15,2014-08-21 19:22:00,
2014-08-21 14:27:00,84.3,77.5,29.58,West,277,0.0,12.0,80,0.00,,,0.22,Wunderground v.1.15,2014-08-21 19:27:00,
2014-08-21 14:32:00,84.4,77.2,29.58,WSW,250,0.0,12.0,79,0.00,,,0.22,Wunderground v.1.15,2014-08-21 19:32:00,
2014-08-21 14:37:00,84.3,76.7,29.58,West,266,0.0,12.0,78,0.00,,,0.22,Wunderground v.1.15,2014-08-21 19:37:00,
2014-08-21 14:42:00,84.2,77.4,29.59,SW,225,0.0,12.0,80,0.00,,,0.22,Wunderground v.1.15,2014-08-21 19:42:00,
2014-08-21 14:48:00,83.4,75.8,29.59,SW,225,0.0,12.0,78,0.00,,,0.22,Wunderground v.1.15,2014-08-21 19:48:00,
2014-08-21 14:53:00,83.2,75.6,29.59,WSW,253,0.0,12.0,78,0.00,,,0.22,Wunderground v.1.15,2014-08-21 19:53:00,
2014-08-21 14:58:00,82.8,75.6,29.59,WSW,240,0.0,12.0,79,0.00,,,0.22,Wunderground v.1.15,2014-08-21 19:58:00,
2014-08-21 15:03:00,82.9,76.5,29.59,WSW,237,0.0,12.0,81,0.00,,,0.22,Wunderground v.1.15,2014-08-21 20:03:00,
2014-08-21 15:08:00,82.7,75.9,29.59,WNW,293,0.0,12.0,80,0.00,,,0.22,Wunderground v.1.15,2014-08-21 20:08:00,
2014-08-21 15:14:00,82.4,76.3,29.59,WNW,290,0.0,12.0,82,0.00,,,0.22,Wunderground v.1.15,2014-08-21 20:14:00,
2014-08-21 15:19:00,82.2,76.5,29.59,SSE,161,0.0,12.0,83,0.00,,,0.22,Wunderground v.1.15,2014-08-21 20:19:00,
2014-08-21 15:24:00,82.1,76.4,29.59,SSE,160,0.0,12.0,83,0.00,,,0.22,Wunderground v.1.15,2014-08-21 20:24:00,
2014-08-21 15:29:00,81.9,75.1,29.59,WSW,257,0.0,12.0,80,0.00,,,0.22,Wunderground v.1.15,2014-08-21 20:29:00,
2014-08-21 15:34:00,81.8,75.8,29.60,WSW,257,0.0,12.0,82,0.00,,,0.22,Wunderground v.1.15,2014-08-21 20:34:00,
2014-08-21 15:40:00,81.7,75.3,29.60,WSW,246,0.0,12.0,81,0.00,,,0.22,Wunderground v.1.15,2014-08-21 20:40:00,
2014-08-21 15:45:00,81.9,75.5,29.60,West,261,0.0,12.0,81,0.00,,,0.22,Wunderground v.1.15,2014-08-21 20:45:00,
2014-08-21 15:50:00,82.5,75.7,29.60,WSW,240,0.0,12.0,80,0.00,,,0.22,Wunderground v.1.15,2014-08-21 20:50:00,
2014-08-21 15:55:00,83.3,75.7,29.59,SW,221,0.0,12.0,78,0.00,,,0.22,Wunderground v.1.15,2014-08-21 20:55:00,
2014-08-21 16:00:00,84.1,76.1,29.59,WSW,250,0.0,12.0,77,0.00,,,0.22,Wunderground v.1.15,2014-08-21 21:00:00,
2014-08-21 16:05:00,84.9,76.5,29.60,West,281,1.0,12.0,76,0.00,,,0.22,Wunderground v.1.15,2014-08-21 21:05:00,
2014-08-21 16:10:00,85.5,77.5,29.60,WSW,247,1.0,12.0,77,0.00,,,0.22,Wunderground v.1.15,2014-08-21 21:10:00,
2014-08-21 16:15:00,86.0,77.1,29.59,WSW,253,1.0,12.0,75,0.00,,,0.22,Wunderground v.1.15,2014-08-21 21:15:00,
2014-08-21 16:20:00,86.2,76.9,29.59,WSW,253,1.0,12.0,74,0.00,,,0.22,Wunderground v.1.15,2014-08-21 21:20:00,
2014-08-21 16:25:00,86.1,76.4,29.60,WSW,246,1.0,12.0,73,0.00,,,0.22,Wunderground v.1.15,2014-08-21 21:25:00,
2014-08-21 16:30:00,85.9,76.2,29.60,West,259,1.0,12.0,73,0.00,,,0.22,Wunderground v.1.15,2014-08-21 21:30:00,
2014-08-21 16:35:00,85.7,76.5,29.60,West,264,1.0,12.0,74,0.00,,,0.22,Wunderground v.1.15,2014-08-21 21:35:00,
2014-08-21 16:41:00,85.3,76.1,29.60,SSW,207,1.0,12.0,74,0.00,,,0.22,Wunderground v.1.15,2014-08-21 21:41:00,
2014-08-21 16:46:00,85.1,76.7,29.60,SW,228,1.0,12.0,76,0.00,,,0.22,Wunderground v.1.15,2014-08-21 21:46:00,
2014-08-21 16:51:00,85.1,76.7,29.60,West,268,0.0,12.0,76,0.00,,,0.22,Wunderground v.1.15,2014-08-21 21:51:00,
2014-08-21 16:56:00,85.1,77.5,29.61,West,268,0.0,12.0,78,0.00,,,0.22,Wunderground v.1.15,2014-08-21 21:56:00,
2014-08-21 17:01:00,85.0,77.4,29.61,West,269,0.0,12.0,78,0.00,,,0.22,Wunderground v.1.15,2014-08-21 22:01:00,
2014-08-21 17:07:00,84.7,77.5,29.61,West,269,0.0,12.0,79,0.00,,,0.22,Wunderground v.1.15,2014-08-21 22:07:00,
2014-08-21 17:12:00,84.6,77.7,29.61,West,268,0.0,12.0,80,0.00,,,0.22,Wunderground v.1.15,2014-08-21 22:12:00,
2014-08-21 17:17:00,84.4,77.6,29.61,West,269,0.0,12.0,80,0.00,,,0.22,Wunderground v.1.15,2014-08-21 22:17:00,
2014-08-21 17:22:00,84.4,77.6,29.61,West,269,0.0,12.0,80,0.00,,,0.22,Wunderground v.1.15,2014-08-21 22:22:00,
2014-08-21 17:27:00,84.3,78.2,29.61,WNW,288,0.0,12.0,82,0.00,,,0.22,Wunderground v.1.15,2014-08-21 22:27:00,
2014-08-21 17:33:00,84.8,77.9,29.61,WNW,288,0.0,12.0,80,0.00,,,0.22,Wunderground v.1.15,2014-08-21 22:33:00,
2014-08-21 17:38:00,85.3,78.4,29.61,SSW,200,0.0,12.0,80,0.00,,,0.22,Wunderground v.1.15,2014-08-21 22:38:00,
2014-08-21 17:43:00,86.0,78.3,29.61,WNW,302,0.0,12.0,78,0.00,,,0.22,Wunderground v.1.15,2014-08-21 22:43:00,
2014-08-21 17:48:00,86.6,78.5,29.61,WNW,302,0.0,12.0,77,0.00,,,0.22,Wunderground v.1.15,2014-08-21 22:48:00,
2014-08-21 17:53:00,87.0,79.3,29.61,WNW,297,0.0,12.0,78,0.00,,,0.22,Wunderground v.1.15,2014-08-21 22:53:00,
2014-08-21 17:59:00,86.9,79.2,29.61,WNW,298,0.0,12.0,78,0.00,,,0.22,Wunderground v.1.15,2014-08-21 22:59:00,
2014-08-21 18:04:00,87.0,79.3,29.61,WNW,298,0.0,12.0,78,0.00,,,0.22,Wunderground v.1.15,2014-08-21 23:04:00,
2014-08-21 18:09:00,87.0,79.3,29.61,South,186,0.0,12.0,78,0.00,,,0.22,Wunderground v.1.15,2014-08-21 23:09:00,
2014-08-21 18:14:00,86.9,79.2,29.61,South,186,0.0,12.0,78,0.00,,,0.22,Wunderground v.1.15,2014-08-21 23:14:00,
2014-08-21 18:19:00,86.2,77.7,29.61,South,187,0.0,12.0,76,0.00,,,0.22,Wunderground v.1.15,2014-08-21 23:19:00,
2014-08-21 18:24:00,85.5,77.5,29.61,South,186,0.0,12.0,77,0.00,,,0.22,Wunderground v.1.15,2014-08-21 23:24:00,
2014-08-21 18:30:00,84.2,77.4,29.61,South,186,0.0,12.0,80,0.00,,,0.22,Wunderground v.1.15,2014-08-21 23:30:00,
2014-08-21 18:35:00,83.5,77.1,29.61,South,186,0.0,12.0,81,0.00,,,0.22,Wunderground v.1.15,2014-08-21 23:35:00,
2014-08-21 18:40:00,83.1,77.0,29.61,South,186,0.0,12.0,82,0.00,,,0.22,Wunderground v.1.15,2014-08-21 23:40:00,
2014-08-21 18:45:00,82.8,77.1,29.61,South,186,0.0,12.0,83,0.00,,,0.22,Wunderground v.1.15,2014-08-21 23:45:00,
2014-08-21 18:50:00,82.5,77.2,29.62,South,186,0.0,12.0,84,0.00,,,0.22,Wunderground v.1.15,2014-08-21 23:50:00,
2014-08-21 18:55:00,82.1,77.1,29.62,South,186,0.0,12.0,85,0.00,,,0.22,Wunderground v.1.15,2014-08-21 23:55:00,
2014-08-21 19:00:00,81.7,77.1,29.61,South,186,0.0,12.0,86,0.00,,,0.22,Wunderground v.1.15,2014-08-22 00:00:00,
2014-08-21 19:05:00,81.3,76.7,29.61,South,186,0.0,12.0,86,0.00,,,0.22,Wunderground v.1.15,2014-08-22 00:05:00,
2014-08-21 19:10:00,81.0,76.8,29.61,South,186,0.0,12.0,87,0.00,,,0.22,Wunderground v.1.15,2014-08-22 00:10:00,
2014-08-21 19:15:00,80.7,76.8,29.61,South,186,0.0,12.0,88,0.00,,,0.22,Wunderground v.1.15,2014-08-22 00:15:00,
2014-08-21 19:21:00,80.3,76.4,29.62,South,186,0.0,12.0,88,0.00,,,0.22,Wunderground v.1.15,2014-08-22 00:21:00,
2014-08-21 19:26:00,80.0,76.5,29.61,South,186,0.0,12.0,89,0.00,,,0.22,Wunderground v.1.15,2014-08-22 00:26:00,
2014-08-21 19:31:00,79.7,76.2,29.62,South,186,0.0,12.0,89,0.00,,,0.22,Wunderground v.1.15,2014-08-22 00:31:00,
2014-08-21 19:36:00,79.4,76.2,29.62,South,186,0.0,12.0,90,0.00,,,0.23,Wunderground v.1.15,2014-08-22 00:36:00,
2014-08-21 19:41:00,79.3,76.1,29.62,South,186,0.0,12.0,90,0.00,,,0.23,Wunderground v.1.15,2014-08-22 00:41:00,
2014-08-21 19:47:00,78.9,75.7,29.62,South,186,0.0,12.0,90,0.00,,,0.23,Wunderground v.1.15,2014-08-22 00:47:00,
2014-08-21 19:52:00,78.6,75.8,29.62,South,186,0.0,12.0,91,0.00,,,0.23,Wunderground v.1.15,2014-08-22 00:52:00,
2014-08-21 19:57:00,78.3,75.5,29.62,South,186,0.0,12.0,91,0.00,,,0.23,Wunderground v.1.15,2014-08-22 00:57:00,
2014-08-21 20:02:00,78.0,75.5,29.63,South,186,0.0,12.0,92,0.00,,,0.23,Wunderground v.1.15,2014-08-22 01:02:00,
2014-08-21 20:07:00,77.8,75.3,29.63,South,186,0.0,12.0,92,0.00,,,0.23,Wunderground v.1.15,2014-08-22 01:07:00,
2014-08-21 20:13:00,77.7,75.2,29.63,South,186,0.0,12.0,92,0.00,,,0.23,Wunderground v.1.15,2014-08-22 01:13:00,
2014-08-21 20:18:00,77.7,75.5,29.63,South,186,0.0,12.0,93,0.00,,,0.23,Wunderground v.1.15,2014-08-22 01:18:00,
2014-08-21 20:23:00,77.6,75.4,29.64,South,186,0.0,12.0,93,0.00,,,0.23,Wunderground v.1.15,2014-08-22 01:23:00,
2014-08-21 20:28:00,77.5,75.3,29.64,South,184,0.0,12.0,93,0.00,,,0.23,Wunderground v.1.15,2014-08-22 01:28:00,
2014-08-21 20:33:00,77.4,75.2,29.64,South,184,0.0,12.0,93,0.00,,,0.23,Wunderground v.1.15,2014-08-22 01:33:00,
2014-08-21 20:39:00,77.4,75.2,29.64,South,184,0.0,12.0,93,0.00,,,0.23,Wunderground v.1.15,2014-08-22 01:39:00,
2014-08-21 20:44:00,77.3,75.1,29.64,South,184,0.0,12.0,93,0.00,,,0.23,Wunderground v.1.15,2014-08-22 01:44:00,